Content
SEND FEEDBACK

Daily
Averages
Monthly
Summary
United States of America

TAMUNING, GUAM


Home > North America > United States > Guam
Elevation: 250 feet     Latitude: 13 29N     Longitude: 144 47E

WEATHER
 
SELECT A DAY
Number of Records: 341,964;   Date Range: 1/1/95 - 7/26/14
 
SHARE

PRINT THIS DATA

[ ← Previous Day ]
WEATHER ALMANAC - NOVEMBER 16, 2013
[ Next Day → ]
[ °C ]   °F
Weather ElementAverageHighLow
Temperature80.3 °F84.2 °F (11:58 am)77.5 °F (2:58 am)
Dewpoint74.1 °F77 °F (1:17 pm)68.4 °F (6:58 am)
Humidity81.5 %94 % (7:33 pm)69 % (8:58 am)
Barometer29.83 in29.87 in (11:13 pm)29.78 in (1:58 pm)
Wind Speed12.5 mph17.3 mph (1:40 pm)
Weather ElementAverage
Visibility10 mi
Wind DirectionNE (45.3 °)

Weather ElementTotal
Precipitation---
Cooling Degree Days15.9 (Base 65)
Growing Degree Days30.9 (Base 50)
Averaged from 38 records on November 16, 2013
WEATHER CONDITIONS BREAKOUT
WIND DIRECTION BREAKOUT
WEATHER BY HOUR - NOVEMBER 16, 2013
[ °C ]   °F
Local TimeTemperatureDewpointHumidityBarometerVisibilityWind DirectionWind SpeedGust SpeedPrecipitationEventsConditions
1:58 AM77.7 °F70.7 °F79 %29.82 in10.0 miENE (60°)12.7 mphPartly Cloudy
2:58 AM77.5 °F71.2 °F81 %29.81 in10.0 miNE (50°)12.7 mphPartly Cloudy
3:58 AM77.5 °F68.9 °F75 %29.81 in10.0 miENE (60°)12.7 mphClear
4:58 AM77.9 °F70.5 °F78 %29.81 in10.0 miNE (40°)12.7 mphScattered Clouds
5:58 AM77.5 °F69.3 °F76 %29.82 in10.0 miNE (50°)11.5 mphScattered Clouds
6:58 AM77.5 °F68.4 °F73 %29.83 in10.0 miNE (50°)11.5 mphClear
7:58 AM81.0 °F70.5 °F70 %29.86 in10.0 miNE (50°)12.7 mphScattered Clouds
8:58 AM81.5 °F70.3 °F69 %29.86 in10.0 miNE (50°)12.7 mphScattered Clouds
9:58 AM82.6 °F72.9 °F72 %29.86 in10.0 miENE (60°)10.4 mphScattered Clouds
10:58 AM83.1 °F73.4 °F72 %29.86 in10.0 miNE (50°)13.8 mphScattered Clouds
11:58 AM84.2 °F73.9 °F71 %29.82 in10.0 miNE (40°)12.7 mphPartly Cloudy
12:53 PM84.2 °F73.4 °F70 %29.83 in10.0 miNE (40°)10.4 mphMostly Cloudy
12:58 PM84.2 °F74.3 °F72 %29.79 in10.0 miNE (50°)13.8 mphMostly Cloudy
1:17 PM84.2 °F77.0 °F79 %29.82 in10.0 miNNE (20°)15.0 mphRainLight Rain
1:29 PM80.6 °F77.0 °F89 %29.81 in10.0 miNE (50°)15.0 mphOvercast
1:30 PM80.6 °F77.0 °F89 %29.81 in10.0 miENE (60°)15.0 mphOvercast
1:40 PM80.6 °F77.0 °F89 %29.81 in10.0 miENE (60°)17.3 mphMostly Cloudy
1:58 PM82.0 °F75.6 °F81 %29.78 in10.0 miENE (60°)17.3 mph0.00 inMostly Cloudy
2:58 PM80.1 °F75.6 °F86 %29.78 in10.0 miEast (80°)12.7 mphScattered Clouds
3:58 PM79.2 °F74.1 °F84 %29.78 in10.0 miENE (70°)11.5 mphMostly Cloudy
4:58 PM80.8 °F73.4 °F78 %29.78 in10.0 miNE (40°)11.5 mphMostly Cloudy
5:58 PM79.2 °F75.6 °F89 %29.79 in10.0 miNNE (30°)6.9 mphClear
6:18 PM78.8 °F75.2 °F89 %29.83 in10.0 miNNE (30°)8.1 mphMostly Cloudy
6:33 PM78.8 °F75.2 °F89 %29.83 in10.0 miNE (40°)10.4 mphOvercast
6:36 PM78.8 °F75.2 °F89 %29.83 in10.0 miNNE (30°)10.4 mphLight Drizzle
6:41 PM80.6 °F77.0 °F89 %29.84 in10.0 miNNE (30°)10.4 mphLight Drizzle
6:45 PM80.6 °F77.0 °F89 %29.84 in10.0 miNNE (30°)9.2 mphOvercast
6:55 PM80.6 °F77.0 °F89 %29.85 in10.0 miNNE (30°)10.4 mphMostly Cloudy
6:58 PM80.6 °F77.0 °F89 %29.82 in10.0 miNE (40°)10.4 mph0.00 inMostly Cloudy
7:03 PM80.6 °F77.0 °F89 %29.85 in10.0 miNNE (30°)8.1 mphMostly Cloudy
7:33 PM78.8 °F77.0 °F94 %29.86 in10.0 miENE (60°)10.4 mphOvercast
7:58 PM79.2 °F76.5 °F91 %29.83 in10.0 miNE (40°)12.7 mphMostly Cloudy
8:58 PM80.4 °F73.6 °F80 %29.84 in10.0 miNE (40°)15.0 mphMostly Cloudy
9:58 PM80.2 °F73.6 °F80 %29.86 in10.0 miNE (40°)16.1 mphOvercast
10:58 PM80.1 °F73.4 °F80 %29.84 in10.0 miNE (40°)13.8 mphMostly Cloudy
11:13 PM80.6 °F73.4 °F79 %29.87 in10.0 miNE (40°)15.0 mphMostly Cloudy
11:48 PM80.6 °F73.4 °F79 %29.86 in10.0 miNE (40°)13.8 mphMostly Cloudy
11:58 PM79.7 °F73.4 °F81 %29.83 in10.0 miNE (40°)17.3 mphMostly Cloudy
Hourly data recorded from PGUA, located miles away from Tamuning, Guam







STORIES FROM OUR PARTNERS